Showing default

COSMOS 2432 (GLONASS), 32276

Orbit data source: Space-Track

COSMOS 2432 (GLONASS), 32276 is a Commonwealth of Independent States-origin payload satellite in MEO that was launched on Fri, 26 Oct 2007 UTC via a PROTON-K/DM-2 launch vehicle from the Tyuratam Missile And Space Complex (TTMTR). Payload-class satellites include a variety of spacecraft equipped with specific instruments for various scientific and technological missions. These include communications satellites like Starlink; space stations such as the ISS; scientific satellites like the Hubble; Earth observation satellites from companies like Planet Labs, Umbra, and HawkEye 360; GPS; miniature CubeSats for education and research; and military/defense satellites.

Loading next visibility...
Identifier
32276, 2007-052B
Orbit
MEO
Country
Flag of CISCIS
Related business
Manufacturer
Resehetnev ISS
Mission
On reserve Defense Navigation
Bus & Motor
URAGAN, Unknown motor
Mass
1,450 kg wet, ~1,200 kg dry
Launch date (UTC)
2007-10-26 (18 years ago)
Launch vehicle
PROTON-K/DM-2
Launch site
Tyuratam Missile And Space Complex (TTMTR)
Object type
Payload
Rocket body
Debris
Shape & HBR
Cyl + 1 Ant + 2 Pan, 3.9 m
Radar Cross Section
8.467 m², Large (>1 m²)

Expand to show TLE details & history
Last TLE update: 3 days ago

TLE from 3 days ago
0 COSMOS 2432 (GLONASS)
1 32276U 07052B   25302.11263179 -.00000011  00000-0  00000-0 0  9999
2 32276  65.7218 323.8290 0010532 307.1427  52.6692  2.13103206140152
Epoch: 2025-10-29T02:42Z
TLE epoch observation values (Epoch: 2025-10-29T02:42:11.386Z)
Latitude
-0.13298°
Longitude
-114.45934°
Altitude
19,114.135 km
Speed
3.956 km/s
True Right ascension
21h 35m 06s
True Declination
0° 07' 58"
Sunlit
Object was in daylight at epoch
Visualization orbit readout
Latitude
Unknown
Longitude
Unknown
Altitude
Unknown
Speed
Unknown
Apparent Right ascension
Unknown
Apparent Declination
Unknown
Sunlit
N/A
Visualization observer readout
Local Sidereal Time
06:49:14
Azimuth
Unknown
Elevation
Unknown
Doppler factor
Unknown
Orbital elements
Apogee altitude
19,156.246 km
Perigee altitude
19,102.517 km
Semi-major axis
25,507.518 km
Eccentricity
0.00105
Inclination
65.7218°
RAAN
323.829°
Arg. of periapsis
307.1427°
True anomaly
52.76524°
Mean anomaly
52.6692°
Eccentric anomaly
52.71721°
Mean motion
0.53277 °/min
Orbital period
675.71 mins
BSTAR
0
Loading maneuver chart data...
Computing Atmospheric mass density...
Loading historical data...
Loading historical data...
Loading historical data...
Loading historical data...
Loading historical data...
Loading historical data...
Loading historical data...

Documentation

Showing up to 5 results
|